CSN3239 ZGGG-ZSTX

Flight info

Callsign CSN3239
Flight time 1h 24m
Altitude 26600
Route BOVMA9 BOVMA W41 OMDUP G471 PLT A599 TUPGA DCT OREXA ORE92A
Aircraft A320/M-SDE3FGHIRWY/LB1

Departure

Time 2026-05-07 10:13
Airport Guangzhou Baiyun International Airport (ZGGG)

Arrival

Time 2026-05-07 11:38
Airport Huangshan Tunxi International Airport (ZSTX)
Time Latitude Longitude Altitude Speed Heading
2026-05-07 10:06 23.40258 113.30601 55 ft 4 kts 153°
2026-05-07 10:07 23.40278 113.30584 52 ft 4 kts 119°
2026-05-07 10:07 23.40284 113.30568 52 ft 0 kts 103°
2026-05-07 10:09 23.40282 113.30579 54 ft 7 kts 103°
2026-05-07 10:09 23.40261 113.30673 58 ft 15 kts 103°
2026-05-07 10:09 23.40235 113.30788 58 ft 15 kts 105°
2026-05-07 10:09 23.40203 113.30904 58 ft 17 kts 105°
2026-05-07 10:10 23.40198 113.31030 55 ft 17 kts 48°
2026-05-07 10:10 23.40314 113.31074 55 ft 19 kts 14°
2026-05-07 10:10 23.40449 113.31110 56 ft 21 kts 14°
2026-05-07 10:10 23.40599 113.31151 57 ft 23 kts 14°
2026-05-07 10:11 23.40750 113.31193 57 ft 21 kts 14°
2026-05-07 10:11 23.40895 113.31232 51 ft 22 kts 20°
2026-05-07 10:11 23.40912 113.31308 58 ft 1 kts 102°
2026-05-07 10:11 23.40909 113.31321 55 ft 3 kts 103°
2026-05-07 10:12 23.40902 113.31354 57 ft 6 kts 104°
2026-05-07 10:12 23.40886 113.31411 55 ft 10 kts 119°
2026-05-07 10:12 23.40820 113.31412 51 ft 11 kts 194°
2026-05-07 10:12 23.40610 113.31356 51 ft 64 kts 193°
2026-05-07 10:13 23.39965 113.31185 54 ft 123 kts 195°
2026-05-07 10:13 23.38979 113.30905 65 ft 168 kts 193°
2026-05-07 10:13 23.37815 113.30602 475 ft 177 kts 193°
2026-05-07 10:13 23.36621 113.30284 1111 ft 176 kts 193°
2026-05-07 10:14 23.35399 113.29955 1494 ft 191 kts 193°
2026-05-07 10:14 23.34037 113.29589 1708 ft 213 kts 193°
2026-05-07 10:14 23.32533 113.29185 2047 ft 233 kts 193°
2026-05-07 10:14 23.30946 113.28758 2785 ft 236 kts 194°
2026-05-07 10:15 23.29320 113.28464 3600 ft 239 kts 181°
2026-05-07 10:15 23.27649 113.28446 4449 ft 241 kts 181°
2026-05-07 10:15 23.25980 113.28432 5257 ft 245 kts 182°
2026-05-07 10:15 23.24250 113.28415 5897 ft 258 kts 182°
2026-05-07 10:16 23.22401 113.28396 6469 ft 271 kts 182°
2026-05-07 10:16 23.20493 113.28378 7192 ft 277 kts 182°
2026-05-07 10:16 23.18555 113.28278 7924 ft 281 kts 191°
2026-05-07 10:16 23.16637 113.27834 8693 ft 284 kts 195°
2026-05-07 10:17 23.14691 113.27406 9442 ft 289 kts 188°
2026-05-07 10:17 23.12670 113.27644 10093 ft 301 kts 164°
2026-05-07 10:17 23.10816 113.28865 10303 ft 329 kts 135°
2026-05-07 10:17 23.09614 113.31028 10437 ft 355 kts 109°
2026-05-07 10:18 23.08903 113.33680 10552 ft 376 kts 111°
2026-05-07 10:18 23.07764 113.36302 10673 ft 393 kts 116°
2026-05-07 10:18 23.06937 113.39195 10791 ft 413 kts 96°
2026-05-07 10:18 23.07206 113.42324 11069 ft 423 kts 72°
2026-05-07 10:19 23.08595 113.45130 11538 ft 425 kts 48°
2026-05-07 10:19 23.10863 113.47159 12051 ft 424 kts 25°
2026-05-07 10:19 23.13581 113.48275 12568 ft 425 kts 15°
2026-05-07 10:19 23.16279 113.49622 13119 ft 433 kts 31°
2026-05-07 10:20 23.18545 113.51813 13665 ft 441 kts 47°
2026-05-07 10:20 23.20320 113.54555 14130 ft 447 kts 58°
2026-05-07 10:20 23.21774 113.57553 14587 ft 451 kts 63°
2026-05-07 10:20 23.23127 113.60642 15022 ft 454 kts 63°
2026-05-07 10:21 23.24538 113.63727 15449 ft 457 kts 61°
2026-05-07 10:21 23.26075 113.66760 15848 ft 460 kts 58°
2026-05-07 10:21 23.27715 113.69698 16238 ft 462 kts 56°
2026-05-07 10:21 23.29466 113.72639 16624 ft 465 kts 55°
2026-05-07 10:22 23.31266 113.75578 17006 ft 468 kts 54°
2026-05-07 10:22 23.33078 113.78531 17332 ft 471 kts 55°
2026-05-07 10:22 23.34886 113.81521 17687 ft 474 kts 55°
2026-05-07 10:22 23.36680 113.84544 18041 ft 477 kts 56°
2026-05-07 10:23 23.38466 113.87599 18341 ft 480 kts 56°
2026-05-07 10:23 23.40250 113.90680 18655 ft 482 kts 56°
2026-05-07 10:23 23.42036 113.93772 18948 ft 484 kts 56°
2026-05-07 10:23 23.43807 113.96841 19253 ft 486 kts 56°
2026-05-07 10:24 23.45614 113.99961 19558 ft 488 kts 56°
2026-05-07 10:24 23.47431 114.03090 19845 ft 490 kts 56°
2026-05-07 10:24 23.49255 114.06229 20138 ft 492 kts 56°
2026-05-07 10:24 23.51165 114.09325 20412 ft 492 kts 50°
2026-05-07 10:25 23.53447 114.12092 20685 ft 491 kts 41°
2026-05-07 10:25 23.56076 114.14456 20953 ft 490 kts 32°
2026-05-07 10:25 23.58990 114.16354 21198 ft 487 kts 23°
2026-05-07 10:25 23.62014 114.17912 21408 ft 488 kts 22°
2026-05-07 10:26 23.65091 114.19488 21625 ft 490 kts 22°
2026-05-07 10:26 23.68175 114.21074 21830 ft 491 kts 22°
2026-05-07 10:26 23.71268 114.22670 22033 ft 492 kts 22°
2026-05-07 10:26 23.74368 114.24268 22230 ft 494 kts 22°
2026-05-07 10:27 23.77478 114.25877 22422 ft 495 kts 22°
2026-05-07 10:27 23.80589 114.27501 22610 ft 497 kts 24°
2026-05-07 10:27 23.83551 114.29463 22884 ft 500 kts 33°
2026-05-07 10:27 23.86296 114.31708 23185 ft 499 kts 34°
2026-05-07 10:28 23.89071 114.33988 23485 ft 499 kts 34°
2026-05-07 10:28 23.91845 114.36262 23753 ft 499 kts 34°
2026-05-07 10:28 23.94626 114.38536 23966 ft 499 kts 34°
2026-05-07 10:28 23.97409 114.40810 24214 ft 499 kts 33°
2026-05-07 10:29 24.00184 114.43081 24511 ft 498 kts 33°
2026-05-07 10:29 24.02948 114.45345 24836 ft 496 kts 33°
2026-05-07 10:29 24.05707 114.47604 25163 ft 494 kts 33°
2026-05-07 10:30 24.11153 114.52081 25808 ft 492 kts 33°
2026-05-07 10:30 24.13885 114.54332 26162 ft 490 kts 33°
2026-05-07 10:30 24.16608 114.56575 26443 ft 489 kts 33°
2026-05-07 10:30 24.19338 114.58820 26507 ft 494 kts 33°
2026-05-07 10:31 24.22101 114.61089 26511 ft 499 kts 33°
2026-05-07 10:31 24.24893 114.63381 26509 ft 503 kts 33°
2026-05-07 10:31 24.27701 114.65687 26507 ft 505 kts 33°
2026-05-07 10:31 24.30513 114.68000 26509 ft 506 kts 33°
2026-05-07 10:32 24.33287 114.70290 26508 ft 506 kts 33°
2026-05-07 10:32 24.36095 114.72609 26512 ft 506 kts 33°
2026-05-07 10:32 24.38906 114.74934 26505 ft 506 kts 33°
2026-05-07 10:32 24.41715 114.77259 26508 ft 506 kts 33°
2026-05-07 10:33 24.44525 114.79588 26523 ft 506 kts 33°
2026-05-07 10:33 24.47337 114.81915 26519 ft 506 kts 33°
2026-05-07 10:33 24.50147 114.84237 26517 ft 506 kts 33°
2026-05-07 10:33 24.52957 114.86558 26519 ft 505 kts 33°
2026-05-07 10:34 24.55729 114.88852 26514 ft 505 kts 33°
2026-05-07 10:34 24.58593 114.91071 26506 ft 502 kts 27°
2026-05-07 10:34 24.61681 114.92823 26507 ft 497 kts 19°
2026-05-07 10:34 24.64932 114.94046 26508 ft 492 kts 10°
2026-05-07 10:35 24.68261 114.94879 26518 ft 491 kts
2026-05-07 10:35 24.71593 114.95695 26514 ft 491 kts
2026-05-07 10:35 24.74922 114.96520 26511 ft 490 kts
2026-05-07 10:35 24.78250 114.97345 26512 ft 490 kts
2026-05-07 10:36 24.81534 114.98154 26511 ft 490 kts
2026-05-07 10:36 24.84864 114.98969 26509 ft 490 kts
2026-05-07 10:36 24.88197 114.99777 26509 ft 490 kts
2026-05-07 10:36 24.91530 115.00581 26507 ft 490 kts
2026-05-07 10:37 24.94863 115.01385 26511 ft 490 kts
2026-05-07 10:37 24.98198 115.02194 26504 ft 491 kts
2026-05-07 10:37 25.01530 115.03009 26497 ft 491 kts
2026-05-07 10:37 25.04867 115.03827 26498 ft 491 kts
2026-05-07 10:38 25.08208 115.04645 26497 ft 492 kts
2026-05-07 10:38 25.11547 115.05463 26497 ft 492 kts
2026-05-07 10:38 25.14844 115.06268 26499 ft 492 kts
2026-05-07 10:38 25.18182 115.07083 26498 ft 492 kts
2026-05-07 10:39 25.21525 115.07901 26502 ft 492 kts
2026-05-07 10:39 25.24864 115.08717 26512 ft 491 kts
2026-05-07 10:39 25.28200 115.09532 26514 ft 491 kts
2026-05-07 10:39 25.31565 115.10006 26513 ft 485 kts 359°
2026-05-07 10:40 25.34921 115.09865 26507 ft 480 kts 349°
2026-05-07 10:40 25.38177 115.09138 26506 ft 476 kts 340°
2026-05-07 10:40 25.41223 115.07889 26505 ft 472 kts 332°
2026-05-07 10:40 25.44198 115.06360 26502 ft 472 kts 332°
2026-05-07 10:41 25.47175 115.04832 26503 ft 472 kts 332°
2026-05-07 10:41 25.50152 115.03304 26503 ft 472 kts 332°
2026-05-07 10:41 25.53132 115.01776 26514 ft 472 kts 332°
2026-05-07 10:41 25.56110 115.00248 26503 ft 472 kts 332°
2026-05-07 10:42 25.59092 114.98718 26498 ft 472 kts 332°
2026-05-07 10:42 25.62075 114.97185 26494 ft 473 kts 332°
2026-05-07 10:42 25.65058 114.95649 26493 ft 473 kts 332°
2026-05-07 10:42 25.68001 114.94131 26492 ft 473 kts 332°
2026-05-07 10:43 25.70984 114.92592 26496 ft 473 kts 332°
2026-05-07 10:43 25.74081 114.91325 26495 ft 478 kts 343°
2026-05-07 10:43 25.77395 114.90851 26495 ft 484 kts 356°
2026-05-07 10:43 25.80763 114.91256 26495 ft 491 kts 10°
2026-05-07 10:44 25.83989 114.92568 26494 ft 499 kts 25°
2026-05-07 10:44 25.86871 114.94743 26486 ft 505 kts 39°
2026-05-07 10:44 25.89341 114.97544 26486 ft 508 kts 45°
2026-05-07 10:44 25.91719 115.00375 26484 ft 509 kts 45°
2026-05-07 10:45 25.94136 115.03254 26488 ft 509 kts 44°
2026-05-07 10:45 25.96553 115.06133 26488 ft 510 kts 44°
2026-05-07 10:45 25.98976 115.09016 26490 ft 510 kts 44°
2026-05-07 10:45 26.01403 115.11897 26501 ft 511 kts 44°
2026-05-07 10:46 26.03828 115.14779 26497 ft 511 kts 44°
2026-05-07 10:46 26.06256 115.17665 26497 ft 511 kts 44°
2026-05-07 10:46 26.08654 115.20516 26499 ft 511 kts 44°
2026-05-07 10:46 26.11079 115.23404 26503 ft 511 kts 44°
2026-05-07 10:47 26.13507 115.26298 26509 ft 511 kts 44°
2026-05-07 10:47 26.15933 115.29189 26506 ft 511 kts 44°
2026-05-07 10:47 26.18362 115.32088 26508 ft 511 kts 44°
2026-05-07 10:47 26.20783 115.34985 26518 ft 511 kts 44°
2026-05-07 10:48 26.23202 115.37887 26525 ft 511 kts 44°
2026-05-07 10:48 26.25618 115.40785 26526 ft 510 kts 44°
2026-05-07 10:48 26.28033 115.43681 26542 ft 510 kts 44°
2026-05-07 10:48 26.30450 115.46579 26534 ft 511 kts 44°
2026-05-07 10:49 26.32839 115.49443 26528 ft 511 kts 44°
2026-05-07 10:49 26.35257 115.52342 26521 ft 511 kts 44°
2026-05-07 10:49 26.37678 115.55248 26523 ft 511 kts 44°
2026-05-07 10:49 26.40098 115.58154 26524 ft 511 kts 44°
2026-05-07 10:50 26.42519 115.61061 26520 ft 511 kts 44°
2026-05-07 10:50 26.44943 115.63971 26516 ft 511 kts 44°
2026-05-07 10:50 26.47362 115.66879 26523 ft 511 kts 44°
2026-05-07 10:50 26.49778 115.69791 26528 ft 511 kts 44°
2026-05-07 10:51 26.52192 115.72703 26537 ft 511 kts 44°
2026-05-07 10:51 26.54573 115.75578 26543 ft 511 kts 44°
2026-05-07 10:51 26.56983 115.78493 26539 ft 511 kts 44°
2026-05-07 10:51 26.59395 115.81409 26538 ft 511 kts 44°
2026-05-07 10:52 26.61803 115.84321 26539 ft 511 kts 44°
2026-05-07 10:52 26.64213 115.87242 26544 ft 511 kts 44°
2026-05-07 10:52 26.66624 115.90162 26546 ft 511 kts 44°
2026-05-07 10:52 26.69036 115.93081 26542 ft 511 kts 44°
2026-05-07 10:53 26.71412 115.95959 26534 ft 511 kts 44°
2026-05-07 10:53 26.73821 115.98881 26551 ft 511 kts 45°
2026-05-07 10:53 26.76230 116.01807 26541 ft 511 kts 45°
2026-05-07 10:53 26.78640 116.04736 26537 ft 511 kts 45°
2026-05-07 10:54 26.81048 116.07665 26538 ft 511 kts 45°
2026-05-07 10:54 26.83455 116.10594 26542 ft 511 kts 45°
2026-05-07 10:54 26.85866 116.13524 26536 ft 512 kts 45°
2026-05-07 10:54 26.88274 116.16456 26546 ft 512 kts 45°
2026-05-07 10:55 26.90649 116.19351 26544 ft 511 kts 45°
2026-05-07 10:55 26.93058 116.22287 26539 ft 511 kts 45°
2026-05-07 10:55 26.95474 116.25216 26542 ft 511 kts 45°
2026-05-07 10:55 26.97895 116.28135 26539 ft 511 kts 45°
2026-05-07 10:56 27.00324 116.31049 26539 ft 511 kts 45°
2026-05-07 10:56 27.02753 116.33964 26543 ft 511 kts 45°
2026-05-07 10:56 27.05177 116.36875 26542 ft 511 kts 45°
2026-05-07 10:56 27.07600 116.39793 26548 ft 511 kts 45°
2026-05-07 10:57 27.10020 116.42718 26547 ft 511 kts 46°
2026-05-07 10:57 27.12402 116.45605 26547 ft 511 kts 46°
2026-05-07 10:57 27.14819 116.48537 26546 ft 511 kts 46°
2026-05-07 10:57 27.17232 116.51465 26552 ft 511 kts 45°
2026-05-07 10:58 27.19647 116.54392 26545 ft 511 kts 45°
2026-05-07 10:58 27.22070 116.57318 26539 ft 511 kts 45°
2026-05-07 10:58 27.24522 116.60218 26536 ft 512 kts 44°
2026-05-07 10:58 27.26997 116.63094 26536 ft 512 kts 44°
2026-05-07 10:59 27.29487 116.65958 26537 ft 512 kts 43°
2026-05-07 10:59 27.31945 116.68780 26538 ft 512 kts 43°
2026-05-07 10:59 27.34434 116.71647 26539 ft 513 kts 44°
2026-05-07 10:59 27.36919 116.74527 26540 ft 513 kts 44°
2026-05-07 11:00 27.39395 116.77413 26545 ft 513 kts 43°
2026-05-07 11:00 27.41869 116.80313 26539 ft 514 kts 43°
2026-05-07 11:00 27.44344 116.83221 26537 ft 515 kts 43°
2026-05-07 11:00 27.46820 116.86133 26537 ft 515 kts 43°
2026-05-07 11:01 27.49268 116.89010 26538 ft 515 kts 43°
2026-05-07 11:01 27.51751 116.91921 26543 ft 515 kts 43°
2026-05-07 11:01 27.54239 116.94826 26543 ft 515 kts 43°
2026-05-07 11:01 27.56741 116.97723 26544 ft 515 kts 43°
2026-05-07 11:02 27.59247 117.00606 26545 ft 515 kts 43°
2026-05-07 11:02 27.61758 117.03491 26559 ft 516 kts 43°
2026-05-07 11:02 27.64269 117.06379 26553 ft 516 kts 43°
2026-05-07 11:02 27.66777 117.09274 26552 ft 516 kts 43°
2026-05-07 11:03 27.69247 117.12136 26558 ft 516 kts 43°
2026-05-07 11:03 27.71747 117.15043 26555 ft 516 kts 43°
2026-05-07 11:03 27.74243 117.17950 26549 ft 516 kts 43°
2026-05-07 11:03 27.76738 117.20862 26554 ft 516 kts 43°
2026-05-07 11:04 27.79236 117.23772 26557 ft 516 kts 43°
2026-05-07 11:04 27.81738 117.26683 26567 ft 516 kts 43°
2026-05-07 11:04 27.84242 117.29593 26563 ft 517 kts 43°
2026-05-07 11:04 27.86744 117.32503 26558 ft 517 kts 43°
2026-05-07 11:05 27.89249 117.35420 26550 ft 517 kts 43°
2026-05-07 11:05 27.91719 117.38297 26553 ft 517 kts 43°
2026-05-07 11:05 27.94222 117.41216 26543 ft 517 kts 43°
2026-05-07 11:05 27.96727 117.44137 26554 ft 518 kts 43°
2026-05-07 11:06 27.99233 117.47066 26555 ft 518 kts 43°
2026-05-07 11:06 28.01735 117.49998 26555 ft 518 kts 43°
2026-05-07 11:06 28.04242 117.52936 26575 ft 519 kts 43°
2026-05-07 11:06 28.06750 117.55874 26560 ft 519 kts 43°
2026-05-07 11:07 28.09258 117.58817 26556 ft 519 kts 43°
2026-05-07 11:07 28.10921 117.60768 26556 ft 520 kts 43°
2026-05-07 11:07 28.14246 117.64673 26555 ft 520 kts 43°
2026-05-07 11:07 28.16756 117.67624 26556 ft 520 kts 43°
2026-05-07 11:08 28.19267 117.70578 26551 ft 520 kts 43°
2026-05-07 11:08 28.21777 117.73532 26554 ft 520 kts 43°
2026-05-07 11:08 28.24288 117.76488 26556 ft 520 kts 43°
2026-05-07 11:08 28.26800 117.79443 26555 ft 520 kts 43°
2026-05-07 11:09 28.28464 117.81400 26552 ft 520 kts 43°
2026-05-07 11:09 28.31825 117.85356 26561 ft 521 kts 43°
2026-05-07 11:09 28.34302 117.88277 26561 ft 521 kts 43°
2026-05-07 11:09 28.36813 117.91243 26550 ft 521 kts 43°
2026-05-07 11:10 28.39318 117.94206 26553 ft 521 kts 43°
2026-05-07 11:10 28.41828 117.97178 26551 ft 521 kts 43°
2026-05-07 11:10 28.43479 117.99149 26551 ft 521 kts 43°
2026-05-07 11:10 28.46789 118.03180 26558 ft 522 kts 43°
2026-05-07 11:11 28.48416 118.05189 26562 ft 522 kts 44°
2026-05-07 11:11 28.50864 118.08232 26555 ft 522 kts 44°
2026-05-07 11:11 28.54104 118.12272 26556 ft 522 kts 44°
2026-05-07 11:11 28.55757 118.14330 26555 ft 522 kts 44°
2026-05-07 11:12 28.58182 118.17334 26552 ft 522 kts 44°
2026-05-07 11:12 28.61475 118.21394 26556 ft 522 kts 43°
2026-05-07 11:12 28.63939 118.24426 26557 ft 522 kts 44°
2026-05-07 11:12 28.66403 118.27464 26573 ft 522 kts 44°
2026-05-07 11:13 28.68032 118.29476 26568 ft 522 kts 44°
2026-05-07 11:13 28.71324 118.33547 26570 ft 522 kts 44°
2026-05-07 11:13 28.72950 118.35558 26568 ft 522 kts 44°
2026-05-07 11:13 28.76205 118.39589 26561 ft 522 kts 44°
2026-05-07 11:14 28.77866 118.41648 26565 ft 522 kts 44°
2026-05-07 11:14 28.80290 118.44658 26564 ft 522 kts 44°
2026-05-07 11:14 28.83573 118.48741 26561 ft 523 kts 44°
2026-05-07 11:14 28.85200 118.50767 26583 ft 523 kts 44°
2026-05-07 11:15 28.88488 118.54857 26573 ft 523 kts 44°
2026-05-07 11:15 28.90115 118.56881 26571 ft 523 kts 44°
2026-05-07 11:15 28.93369 118.60932 26570 ft 523 kts 44°
2026-05-07 11:15 28.95828 118.63996 26574 ft 523 kts 44°
2026-05-07 11:16 28.98280 118.67054 26562 ft 523 kts 44°
2026-05-07 11:16 29.00736 118.70121 26570 ft 523 kts 44°
2026-05-07 11:16 29.03186 118.73186 26567 ft 522 kts 44°
2026-05-07 11:16 29.04811 118.75219 26595 ft 523 kts 43°
2026-05-07 11:17 29.07267 118.78289 26521 ft 523 kts 44°
2026-05-07 11:17 29.09727 118.81365 26258 ft 525 kts 44°
2026-05-07 11:17 29.12192 118.84451 26022 ft 526 kts 44°
2026-05-07 11:17 29.15457 118.88546 25713 ft 527 kts 44°
2026-05-07 11:18 29.17924 118.91648 25474 ft 527 kts 44°
2026-05-07 11:18 29.19562 118.93709 25326 ft 527 kts 44°
2026-05-07 11:18 29.22028 118.96811 25091 ft 528 kts 44°
2026-05-07 11:18 29.24499 118.99918 24879 ft 528 kts 44°
2026-05-07 11:19 29.26970 119.03033 24649 ft 528 kts 44°
2026-05-07 11:19 29.29435 119.06147 24423 ft 527 kts 44°
2026-05-07 11:19 29.32001 119.09131 24210 ft 521 kts 37°
2026-05-07 11:19 29.34919 119.11540 23990 ft 513 kts 26°
2026-05-07 11:20 29.38105 119.13295 23763 ft 505 kts 16°
2026-05-07 11:20 29.41410 119.14363 23546 ft 497 kts
2026-05-07 11:20 29.44815 119.14791 23284 ft 490 kts 358°
2026-05-07 11:20 29.48211 119.14970 23046 ft 486 kts 358°
2026-05-07 11:21 29.51578 119.15151 22792 ft 483 kts 358°
2026-05-07 11:21 29.54925 119.15246 22533 ft 477 kts 352°
2026-05-07 11:21 29.58140 119.14560 22280 ft 465 kts 337°
2026-05-07 11:21 29.61024 119.13000 22035 ft 454 kts 323°
2026-05-07 11:22 29.63434 119.10721 21794 ft 446 kts 309°
2026-05-07 11:22 29.65258 119.07893 21544 ft 438 kts 296°
2026-05-07 11:22 29.66417 119.04735 21304 ft 433 kts 284°
2026-05-07 11:22 29.66930 119.01346 21063 ft 430 kts 275°
2026-05-07 11:23 29.67246 118.97928 20825 ft 430 kts 275°
2026-05-07 11:23 29.67560 118.94514 20575 ft 429 kts 275°
2026-05-07 11:23 29.67872 118.91109 20345 ft 428 kts 275°
2026-05-07 11:23 29.68184 118.87710 20106 ft 427 kts 275°
2026-05-07 11:24 29.68495 118.84312 19872 ft 426 kts 275°
2026-05-07 11:24 29.68800 118.80975 19645 ft 425 kts 275°
2026-05-07 11:24 29.69111 118.77598 19414 ft 423 kts 275°
2026-05-07 11:24 29.69420 118.74236 19182 ft 422 kts 275°
2026-05-07 11:25 29.69726 118.70886 18758 ft 419 kts 275°
2026-05-07 11:25 29.70025 118.67567 17771 ft 416 kts 274°
2026-05-07 11:25 29.70319 118.64275 16869 ft 411 kts 275°
2026-05-07 11:25 29.70610 118.61023 16001 ft 407 kts 275°
2026-05-07 11:26 29.70901 118.57793 15144 ft 403 kts 275°
2026-05-07 11:26 29.71181 118.54642 14331 ft 401 kts 275°
2026-05-07 11:26 29.71462 118.51454 13499 ft 400 kts 275°
2026-05-07 11:26 29.71741 118.48281 12696 ft 398 kts 275°
2026-05-07 11:27 29.72021 118.45129 11932 ft 394 kts 275°
2026-05-07 11:27 29.72301 118.42006 11527 ft 388 kts 276°
2026-05-07 11:27 29.72578 118.38999 11172 ft 368 kts 276°
2026-05-07 11:27 29.72844 118.36151 11053 ft 349 kts 276°
2026-05-07 11:28 29.73096 118.33446 10933 ft 332 kts 276°
2026-05-07 11:28 29.73335 118.30866 10817 ft 317 kts 276°
2026-05-07 11:28 29.73559 118.28423 10700 ft 305 kts 276°
2026-05-07 11:28 29.73775 118.26040 10581 ft 294 kts 276°
2026-05-07 11:29 29.73977 118.23733 10379 ft 287 kts 275°
2026-05-07 11:29 29.74163 118.21476 10319 ft 283 kts 275°
2026-05-07 11:29 29.74346 118.19216 10232 ft 284 kts 275°
2026-05-07 11:29 29.74527 118.16957 10106 ft 283 kts 275°
2026-05-07 11:30 29.74768 118.13967 9798 ft 286 kts 275°
2026-05-07 11:30 29.74892 118.12406 9375 ft 291 kts 275°
2026-05-07 11:30 29.75074 118.10156 8835 ft 284 kts 276°
2026-05-07 11:30 29.75264 118.07898 8163 ft 283 kts 278°
2026-05-07 11:31 29.75766 118.05732 7519 ft 279 kts 295°
2026-05-07 11:31 29.76753 118.03865 7143 ft 265 kts 310°
2026-05-07 11:31 29.77865 118.02245 6983 ft 253 kts 310°
2026-05-07 11:31 29.78927 118.00676 6860 ft 244 kts 311°
2026-05-07 11:32 29.81690 117.99168 6592 ft 220 kts
2026-05-07 11:32 29.83076 117.99826 6204 ft 224 kts 36°
2026-05-07 11:32 29.84305 118.00937 5836 ft 226 kts 37°
2026-05-07 11:33 29.85544 118.02054 5479 ft 227 kts 37°
2026-05-07 11:33 29.86702 118.03311 5117 ft 235 kts 58°
2026-05-07 11:33 29.87054 118.05142 4828 ft 242 kts 95°
2026-05-07 11:33 29.86327 118.06901 4407 ft 253 kts 129°
2026-05-07 11:34 29.85116 118.08386 3990 ft 252 kts 128°
2026-05-07 11:34 29.84033 118.09902 3656 ft 239 kts 125°
2026-05-07 11:34 29.83049 118.11360 3346 ft 228 kts 125°
2026-05-07 11:34 29.82100 118.12765 3048 ft 217 kts 126°
2026-05-07 11:35 29.81204 118.14087 2779 ft 203 kts 126°
2026-05-07 11:35 29.80356 118.15337 2481 ft 192 kts 126°
2026-05-07 11:35 29.79580 118.16479 2258 ft 169 kts 127°
2026-05-07 11:35 29.78892 118.17493 2030 ft 154 kts 126°
2026-05-07 11:36 29.78251 118.18437 1827 ft 147 kts 128°
2026-05-07 11:36 29.77631 118.19351 1631 ft 144 kts 127°
2026-05-07 11:36 29.77029 118.20236 1439 ft 141 kts 128°
2026-05-07 11:36 29.76425 118.21125 1255 ft 140 kts 128°
2026-05-07 11:37 29.75824 118.22008 1055 ft 140 kts 128°
2026-05-07 11:37 29.75227 118.22887 856 ft 139 kts 128°
2026-05-07 11:37 29.74630 118.23765 668 ft 139 kts 127°
2026-05-07 11:37 29.74032 118.24643 475 ft 139 kts 127°
2026-05-07 11:38 29.73497 118.25432 429 ft 93 kts 128°
2026-05-07 11:38 29.73285 118.25741 427 ft 5 kts 128°
2026-05-07 11:38 29.73284 118.25742 437 ft 0 kts 128°
2026-05-07 11:38 29.73276 118.25754 430 ft 3 kts 128°
2026-05-07 11:39 29.73260 118.25776 434 ft 4 kts 128°
2026-05-07 11:39 29.73242 118.25804 430 ft 5 kts 128°
2026-05-07 11:39 29.73213 118.25801 436 ft 5 kts 203°
2026-05-07 11:39 29.73190 118.25779 432 ft 5 kts 238°
2026-05-07 11:40 29.73175 118.25711 439 ft 12 kts 258°
2026-05-07 11:40 29.73154 118.25597 433 ft 16 kts 258°
2026-05-07 11:40 29.73104 118.25488 431 ft 16 kts 212°
2026-05-07 11:40 29.73065 118.25459 437 ft 0 kts 213°
2026-05-07 11:43 29.73081 118.25498 432 ft 0 kts 218°